Погода Чимбай

Погода Чимбай : погода сейчас, прогноз погоды и архив. Всё, что Вы хотите узнать о погоде Чимбай!

Хотите узнать прогноз погоды Чимбай? Тогда Вам сюда: Погода Чимбай

Поиск расширенной информации на нашем сайте:

Другие новости

Новости СМИ2

Главная страница сайта

Новости сайта

02.10.2013

Напоминаем, что на нашем новом сайте вы можете получить высокодетализированные прогнозы погоды по пунктам России, СНГ и мира (включающие важные для авиации метеовеличины, такие как направление и скорость ветра, видимость, явления погоды, количество и форма облачности, нижняя и верхняя граница облачности), а также ознакомиться с разнообразными материалами по авиационной метеорологии и подборкой полезных ссылок на эту тему.

Сайт Метеоцентр.Азия посвящён разработке технологий оптимизации авиаметеорологического обслуживания, включая проектирование и перспективное создание нескольких автоматизированных авиаметеорологических систем:
- система выпуска высокодетальных прогностических карт явлений погоды для нижнего воздушного пространства по России и ближнему зарубежью;
- система верификации прогнозов TAF (выпускаемых синоптиками официальных АМСГ РФ и ближнего зарубежья) и AUTOTAF (выпускаемых сайтом Метеоцентр.Азия) - выявление ошибок, онлайн-сопоставление с фактической погодой METAR, автоматическое внесение коррективов в прогнозы при резком отклонении фактической погоды от прогноза, подсчёт оправдываемости прогнозов по элементам и в целом;
- система обработки, анализа и отображения авиаметеорологической информации для применения провайдерами метеорологической информации.

Рекомендуем: Классификация и виды складского немеханического оборудования.

Погода Чимбай - сегодня

Время (UTC), дата Ветер
(°,м/с) 
Видим.   Явления Облачность Т
(°С)
Тd
(°С)
f(%) Тe
(°С)
Pmin
(гПа)
dP
(гПа)
Po
(мм)
O2
(г/м3)
Тmin Tmax R s Состояние
почвы
09 24.06.17 280 (З) 20000 м    9/9 1000 м кучево-дожд. 
[Cb calv]
+32 +13.2 32 +38  1009.2  -0.3  751  269           
12 24.06.17 280 (З) 20000 м    6/6 600 м кучево-дожд. 
[Cb calv]
+33.5 +12.7 28 +38  1008.3  -0.9  751  267           
15 24.06.17 280 (З) 20000 м    ясно 
+32.1 +11 27 +35  1007.6  -0.7  750  269    +34.7       
18 24.06.17 тихо ()   н/о    ясно 
+23.8 +14.8 57 +32  1009.6  1.7  752  276    +34.7       
21 24.06.17 тихо ()   н/о    ясно 
+21.8 +14.9 65 +30  1009.6  752  277           
00 25.06.17 040 (СВ) н/о    ясно 
+19.9 +16.3 80 +32  1009.4  -0.3  751  279           
03 25.06.17 тихо ()   20000 м    ясно 
+26.3 +15.5 51 +36  1010.2  0.9  752  273           
06 25.06.17 210 (ЮЗ) 20000 м    ясно 
+32.6 +12.2 29 +37  1009.8  -0.1  752  268  +19.4         
09 25.06.17 200 (Ю) 20000 м    3/0 средняя 
[Ac trans]
+34.8 +9.7 22 +36  1009  -0.8  751  267           
12 25.06.17 200 (Ю) 20000 м    4/4 1000 м 
[Cu med, cong]
+35.4 +9 20 +35  1008.3  -0.7  751  266           
15 25.06.17 160 (Ю) 20000 м    4/4 1000 м 
[Cu med, cong]
+32.4 +13.1 31 +38  1008.2  -0.1  751  268    +36.9       
18 25.06.17 тихо ()   н/о    ясно 
+26.4 +16.4 54 +38  1009.7  0.8  752  273    +39.6       
21 25.06.17 180 (Ю) н/о    ясно 
+24.3 +15.3 57 +33  1009.3  751  275           
00 26.06.17 150 (ЮВ) н/о    6/6 1000 м 
[Sc]
+24 +14.4 55 +32  1008.6  -0.7  751  275           
03 26.06.17 320 (СЗ) 20000 м    6/0 средняя 
[Ac cast]
+25 +14.2 51 +32  1010  1.4  752  275           
06 26.06.17 330 (СЗ) 15  20000 м    8/0 средняя, верхняя 
[Ac trans|Ci sp]
+27.9 +12.3 38 +32  1011.4  1.5  753  273  +21.9         
09 26.06.17 330 (СЗ) 20000 м    3/0 верхняя 
[Ci sp]
+30.1 +12.5 34 +35  1011.1  -0.3  753  271           
12 26.06.17 320 (СЗ) 20000 м    3/3 1000 м 
[Cu hum]
+30.5 +12.2 33 +35  1010.7  -0.4  752  270           
15 26.06.17 330 (СЗ) 20000 м    ясно 
+28.4 +9.2 30 +28  1013.6  2.7  754  274    +31.8       
18 26.06.17 350 (С) н/о    ясно 
+22.6 +12.2 52 +27  1014.9  1.3  755  279    +31.8       
21 26.06.17 330 (СЗ) н/о    ясно 
+19.2 +9.8 54 +22  1016.1  1.1  756  283           
00 27.06.17 330 (СЗ) н/о    ясно 
+17.3 +11.4 68 +22  1017.2  1.1  757  285           
03 27.06.17 020 (С) 20000 м    ясно 
+21.1 +11.2 53 +24  1018.8  1.6  758  282  +16.7        сухая 
06 27.06.17 040 (СВ) 20000 м    ясно 
+26.5 +8.8 33 +27  1018.5  758  277  +16.7         
09 27.06.17 360 (С) 20000 м    ясно 
+29.5 +6.1 23 +30  1017.6  -0.9  758  275           
Время (UTC), дата Ветер
(°,м/с) 
Видим.   Явления Облачность Т
(°С)
Тd
(°С)
f(%) Тe
(°С)
Pmin
(гПа)
dP
(гПа)
Po
(мм)
O2
(г/м3)
Тmin Tmax R s Состояние
почвы

Для получения пояснительной информации подведите курсор к названию столбца.

ПОГОДА Чимбай - архив

Всё, что Вы хотите узнать о погоде Чимбай - удобно и подробно!

Выберите нужную дату (начиная с 1 января 2015* года) и нажмите кнопку "Найти".
Будут отображены архивные сводки погоды по пункту Чимбай, начиная с указанной даты.


Отображать данные в формате CSV (для использования в таблицах Excel)


Внимание! Наш архив погоды предназначен исключительно для личного некоммерческого использования в познавательных целях. Если Вам необходимы официальные справки о состоянии погоды (для производственных, юридических, коммерческих и т.п. целей), обращайтесь в органы Росгидромета.

*Примечание: данная дата относится к архиву по метеостанциям СССР (Россия, СНГ, Балтия).
Архив по метеостанциям Зарубежной Европы и Азии (кроме Китая) хранится 10 дней, по другим регионам земного шара (Китай, Африка, Америка, Австралия, Океания) - 1 день.

Чимбай - район местоположения метеостанции


Название, широта, долгота, высота метеостанции:
Чимбай 42.9°ш. 59.8°д. 66 м над ур. моря [Узбекистан]

Дополнительная информация

В oтличие oт бoльшинства пoгoдных сайтoв мы публикуем пoдрoбную метеoинфoрмацию в детальнoм прoфессиoнальнoм фoрмате.

Характеристики температуры и влажнoсти вoздуха измеряются на высoте 2 м в тени вдали oт зданий и деревьев.
Скoрoсть ветра измеряется на высoте 10 м (на урoвне рoста челoвека скoрoсть ветра ниже в 1.5-2 раза). Если метеoстанция нахoдится в гoрoде или в лесу, тo скoрoсть ветра занижена на 2-4 м/с пo сравнению с oткрытым местoм. Скoрoсть ветра над акватoриями крупных рек и oзёр, а также на вершинах хoлмoв на 2-5 м/с выше, чем в oбычных услoвиях.
Атмoсфернoе давление в разных тoчках местнoсти мoжет значительнo oтличаться oт давления на метеoстанции, в зависимoсти oт услoвий рельефа (при пoдъёме на 10 м давление пoнижается примернo на 1 мм рт.ст.).